Flag for U.S.A. Weather past 2 weeks in Dallas, Texas, U.S.A.

Now
49 °F

Fog.


Feels Like: 45 °F
Forecast: 43 / 52 °F
Wind: 8 mph from Northeast

Location: Dallas Love Field

Current Time: Dec 19, 2014 at 3:10:50 PM

Latest Report: Dec 19, 2014 at 1:53 PM


Visibility: 4 mi

Pressure: 30.14 "Hg

Humidity: 86%

Dew point: 45 °F

Location of DallasLocation

Historic Weather in Dallas — Graph

°F

Dallas temperature yesterday

Maximum temperature yesterday: 49 °F (at 12:53 PM)
Minimum temperature yesterday: 42 °F (at 12:53 AM)
Average temperature yesterday: 46 °F

Past Weeks' High & Low Weather Summary

 TemperatureHumidityPressure
High77 °F (Dec 5, 2:53 PM)100% (Dec 9, 5:53 AM)30.42 "Hg (Dec 9, 5:53 AM)
Low41 °F (Dec 9, 3:00 AM)31% (Dec 15, 3:53 PM)29.78 "Hg (Dec 14, 5:53 PM)
Average55 °F77%30.18 "Hg
* Reported Dec 4 1:53 PM — Dec 19 1:53 PM, Dallas, Weather by CustomWeather, © 2014

Note: Actual official high and low records may vary slightly from our data, if they occured in-between our weather recording intervals... More about our weather records

Advertising

Dallas weather history for previous 24 hours

 ConditionsComfort  
Time TempWeatherWind HumidityBarometerVisibility
1:53 PM
Dec 19
49 °FFog.8 mph86%30.14 "Hg4 mi
12:53 PM49 °FFog.9 mph90%30.15 "Hg4 mi
11:53 AM47 °FFog.8 mph93%30.18 "Hg4 mi
10:53 AM47 °FFog.9 mph93%30.20 "Hg5 mi
9:53 AM47 °FFog.8 mph90%30.20 "Hg5 mi
8:53 AM47 °FFog.8 mph90%30.19 "Hg5 mi
7:53 AM46 °FFog.3 mph93%30.17 "Hg4 mi
6:53 AM46 °FLight rain. Fog.6 mph93%30.16 "Hg3 mi
5:53 AM46 °FLight rain. Fog.5 mph89%30.17 "Hg4 mi
4:53 AM46 °FFog.6 mph89%30.20 "Hg6 mi
3:53 AM46 °FFog.6 mph89%30.15 "Hg6 mi
2:53 AM46 °FMostly cloudy.8 mph89%30.14 "Hg7 mi
1:53 AM46 °FMostly cloudy.8 mph89%30.16 "Hg8 mi
12:53 AM47 °FMostly cloudy.9 mph86%30.14 "Hg7 mi
11:53 PM
Dec 18
47 °FFog.7 mph86%30.16 "Hg6 mi
10:53 PM47 °FMostly cloudy.3 mph86%30.18 "Hg8 mi
9:53 PM47 °FFog.7 mph90%30.16 "Hg6 mi
8:53 PM48 °FOvercast.No wind83%30.17 "Hg10 mi
7:53 PM48 °FOvercast.7 mph83%30.17 "Hg8 mi
6:53 PM48 °FOvercast.6 mph86%30.15 "Hg7 mi
5:53 PM49 °FOvercast.7 mph84%30.13 "Hg9 mi
4:53 PM49 °FFog.5 mph86%30.12 "Hg5 mi
3:53 PM49 °FFog.5 mph86%30.12 "Hg5 mi
Weather by CustomWeather, © 2014

See weather overviewHow to use our weather pages